When you browse on this site, cookies collect data to enhance your experience and personalize the content and advertising you see.
Visit our Privacy Policy to learn more. By continuing to use the site, you agree to this use of cookies and data.
  • In Österreich
  • Länderverzeichnis
  • Für 7 Tage
  • Wassertemperatur
  • Wetterkarte
  • News
  • Widgets
  • user-avatar
    Anmelden

    Stündliche Wetter Summit

    Heute, 15 September, Sonntag

    Zeit Temperatur Niederschläge Wind Luftdruck Luftfeuchtigkeit
    00:00 +23°C° 0 mm 1 m/S 759 mmHg 83%
    01:00 +23°C° 0 mm 1 m/S 759 mmHg 84%
    02:00 +23°C° 0.1 mm 1 m/S 759 mmHg 86%
    03:00 +22°C° 0.1 mm 1 m/S 758 mmHg 88%
    04:00 +22°C° 0.1 mm 1 m/S 758 mmHg 89%
    05:00 +22°C° 0.1 mm 1 m/S 758 mmHg 86%
    06:00 +22°C° 0.1 mm 1 m/S 759 mmHg 83%
    07:00 +22°C° 0.1 mm 1 m/S 759 mmHg 81%
    08:00 +24°C° 0 mm 1 m/S 759 mmHg 71%
    09:00 +25°C° 0 mm 2 m/S 759 mmHg 62%
    10:00 +27°C° 0 mm 2 m/S 759 mmHg 52%
    11:00 +28°C° 0 mm 2 m/S 758 mmHg 47%
    12:00 +29°C° 0 mm 2 m/S 758 mmHg 41%
    13:00 +30°C° 0 mm 2 m/S 758 mmHg 35%
    14:00 +30°C° 0 mm 2 m/S 757 mmHg 35%
    15:00 +30°C° 0 mm 2 m/S 757 mmHg 35%
    16:00 +29°C° 0 mm 1 m/S 756 mmHg 35%
    17:00 +28°C° 0 mm 1 m/S 756 mmHg 40%
    18:00 +26°C° 0 mm 1 m/S 756 mmHg 46%
    19:00 +25°C° 0 mm 1 m/S 756 mmHg 51%
    20:00 +25°C° 0 mm 1 m/S 756 mmHg 51%
    21:00 +24°C° 0 mm 1 m/S 756 mmHg 52%
    22:00 +24°C° 0 mm 1 m/S 756 mmHg 53%
    23:00 +24°C° 0 mm 1 m/S 756 mmHg 54%

    Morgen, 16 September, Montag

    Zeit Temperatur Niederschläge Wind Luftdruck Luftfeuchtigkeit
    00:00 +23°C° 0 mm 1 m/S 756 mmHg 56%
    01:00 +23°C° 0 mm 1 m/S 756 mmHg 57%
    02:00 +23°C° 0 mm 1 m/S 756 mmHg 58%
    03:00 +22°C° 0 mm 1 m/S 755 mmHg 60%
    04:00 +22°C° 0 mm 1 m/S 755 mmHg 61%
    05:00 +22°C° 0 mm 1 m/S 755 mmHg 61%
    06:00 +23°C° 0 mm 1 m/S 755 mmHg 61%
    07:00 +21°C° 0 mm 0 m/S 756 mmHg 61%
    08:00 +25°C° 0 mm 1 m/S 756 mmHg 57%
    09:00 +26°C° 0 mm 1 m/S 755 mmHg 52%
    10:00 +28°C° 0 mm 1 m/S 755 mmHg 48%
    11:00 +28°C° 0 mm 1 m/S 755 mmHg 48%
    12:00 +28°C° 0 mm 2 m/S 755 mmHg 48%
    13:00 +29°C° 0 mm 2 m/S 754 mmHg 48%
    14:00 +28°C° 0.1 mm 2 m/S 754 mmHg 51%
    15:00 +28°C° 0.1 mm 2 m/S 754 mmHg 53%
    16:00 +28°C° 0.1 mm 2 m/S 753 mmHg 56%
    17:00 +27°C° 0.2 mm 2 m/S 754 mmHg 61%
    18:00 +25°C° 0.2 mm 2 m/S 754 mmHg 66%
    19:00 +24°C° 0.2 mm 2 m/S 754 mmHg 71%
    20:00 +24°C° 0 mm 2 m/S 755 mmHg 73%
    21:00 +23°C° 0 mm 2 m/S 755 mmHg 75%
    22:00 +21°C° 0 mm 2 m/S 755 mmHg 77%
    23:00 +21°C° 0 mm 3 m/S 756 mmHg 77%

    übermorgen, 17 September, Dienstag

    Zeit Temperatur Niederschläge Wind Luftdruck Luftfeuchtigkeit
    00:00 +20°C° 0 mm 3 m/S 756 mmHg 77%
    01:00 +20°C° 0 mm 3 m/S 756 mmHg 76%
    02:00 +18°C° 0 mm 3 m/S 756 mmHg 73%
    03:00 +17°C° 0 mm 4 m/S 756 mmHg 69%
    04:00 +15°C° 0 mm 4 m/S 756 mmHg 66%
    05:00 +15°C° 0 mm 4 m/S 757 mmHg 65%
    06:00 +15°C° 0 mm 4 m/S 758 mmHg 64%
    07:00 +15°C° 0 mm 4 m/S 758 mmHg 63%
    08:00 +17°C° 0 mm 4 m/S 758 mmHg 56%
    09:00 +19°C° 0 mm 4 m/S 758 mmHg 50%
    10:00 +21°C° 0 mm 4 m/S 758 mmHg 43%
    11:00 +22°C° 0 mm 3 m/S 758 mmHg 40%
    12:00 +24°C° 0 mm 3 m/S 758 mmHg 37%
    13:00 +25°C° 0 mm 3 m/S 758 mmHg 34%
    14:00 +25°C° 0 mm 3 m/S 758 mmHg 35%
    15:00 +25°C° 0 mm 3 m/S 757 mmHg 36%
    16:00 +25°C° 0 mm 3 m/S 757 mmHg 37%
    17:00 +23°C° 0 mm 2 m/S 758 mmHg 44%
    18:00 +20°C° 0 mm 2 m/S 758 mmHg 50%
    19:00 +19°C° 0 mm 2 m/S 758 mmHg 57%
    20:00 +19°C° 0 mm 1 m/S 758 mmHg 60%
    21:00 +19°C° 0 mm 1 m/S 759 mmHg 63%
    22:00 +19°C° 0 mm 1 m/S 759 mmHg 65%
    23:00 +18°C° 0 mm 1 m/S 759 mmHg 67%

    18 September, Mittwoch

    Zeit Temperatur Niederschläge Wind Luftdruck Luftfeuchtigkeit
    00:00 +18°C° 0 mm 1 m/S 759 mmHg 68%
    01:00 +18°C° 0 mm 1 m/S 759 mmHg 69%
    02:00 +16°C° 0 mm 1 m/S 759 mmHg 70%
    03:00 +16°C° 0 mm 1 m/S 759 mmHg 70%
    04:00 +15°C° 0 mm 1 m/S 760 mmHg 70%
    05:00 +16°C° 0 mm 1 m/S 760 mmHg 70%
    06:00 +16°C° 0 mm 1 m/S 760 mmHg 69%
    07:00 +16°C° 0 mm 1 m/S 760 mmHg 69%
    08:00 +19°C° 0 mm 1 m/S 760 mmHg 64%
    09:00 +21°C° 0 mm 1 m/S 761 mmHg 59%
    10:00 +22°C° 0 mm 1 m/S 761 mmHg 54%
    11:00 +23°C° 0 mm 1 m/S 761 mmHg 52%
    12:00 +23°C° 0 mm 2 m/S 760 mmHg 50%
    13:00 +23°C° 0 mm 2 m/S 760 mmHg 48%
    14:00 +23°C° 0 mm 2 m/S 760 mmHg 47%
    15:00 +23°C° 0 mm 2 m/S 760 mmHg 46%
    16:00 +24°C° 0 mm 2 m/S 760 mmHg 45%
    17:00 +21°C° 0 mm 2 m/S 760 mmHg 51%
    18:00 +20°C° 0 mm 2 m/S 760 mmHg 57%
    19:00 +18°C° 0 mm 2 m/S 760 mmHg 63%
    20:00 +18°C° 0 mm 2 m/S 761 mmHg 65%
    21:00 +18°C° 0 mm 1 m/S 761 mmHg 67%
    22:00 +18°C° 0 mm 1 m/S 762 mmHg 69%
    23:00 +18°C° 0 mm 1 m/S 762 mmHg 70%

    19 September, Donnerstag

    Zeit Temperatur Niederschläge Wind Luftdruck Luftfeuchtigkeit
    00:00 +16°C° 0 mm 1 m/S 762 mmHg 72%
    01:00 +16°C° 0 mm 1 m/S 762 mmHg 73%
    02:00 +16°C° 0 mm 1 m/S 762 mmHg 74%
    03:00 +16°C° 0 mm 1 m/S 762 mmHg 74%
    04:00 +15°C° 0 mm 1 m/S 762 mmHg 75%
    05:00 +16°C° 0 mm 1 m/S 762 mmHg 73%
    06:00 +16°C° 0 mm 1 m/S 762 mmHg 71%
    07:00 +16°C° 0 mm 1 m/S 762 mmHg 70%
    08:00 +19°C° 0 mm 1 m/S 762 mmHg 62%
    09:00 +21°C° 0 mm 1 m/S 762 mmHg 55%
    10:00 +23°C° 0 mm 1 m/S 763 mmHg 48%
    11:00 +24°C° 0 mm 1 m/S 762 mmHg 44%
    12:00 +25°C° 0 mm 1 m/S 762 mmHg 41%
    13:00 +26°C° 0 mm 1 m/S 762 mmHg 37%
    14:00 +25°C° 0 mm 1 m/S 761 mmHg 38%
    15:00 +25°C° 0 mm 2 m/S 761 mmHg 40%
    16:00 +24°C° 0 mm 2 m/S 761 mmHg 41%
    17:00 +23°C° 0 mm 2 m/S 761 mmHg 47%
    18:00 +20°C° 0 mm 2 m/S 761 mmHg 53%
    19:00 +19°C° 0 mm 2 m/S 761 mmHg 59%
    20:00 +18°C° 0 mm 2 m/S 761 mmHg 60%
    21:00 +18°C° 0 mm 2 m/S 762 mmHg 61%
    22:00 +17°C° 0 mm 2 m/S 762 mmHg 62%
    23:00 +17°C° 0 mm 2 m/S 762 mmHg 63%

    20 September, Freitag

    Zeit Temperatur Niederschläge Wind Luftdruck Luftfeuchtigkeit
    00:00 +16°C° 0 mm 2 m/S 761 mmHg 65%
    01:00 +16°C° 0 mm 2 m/S 761 mmHg 66%
    02:00 +16°C° 0 mm 2 m/S 761 mmHg 69%
    03:00 +15°C° 0 mm 2 m/S 761 mmHg 72%
    04:00 +15°C° 0 mm 2 m/S 761 mmHg 75%
    05:00 +15°C° 0 mm 2 m/S 761 mmHg 75%
    06:00 +16°C° 0 mm 2 m/S 761 mmHg 74%
    07:00 +16°C° 0 mm 2 m/S 761 mmHg 73%
    08:00 +18°C° 0 mm 2 m/S 761 mmHg 64%
    09:00 +21°C° 0 mm 2 m/S 761 mmHg 56%
    10:00 +24°C° 0 mm 2 m/S 761 mmHg 47%
    11:00 +25°C° 0 mm 2 m/S 761 mmHg 44%
    12:00 +26°C° 0 mm 2 m/S 760 mmHg 41%
    13:00 +27°C° 0 mm 2 m/S 759 mmHg 38%
    14:00 +27°C° 0 mm 2 m/S 759 mmHg 40%
    15:00 +27°C° 0 mm 3 m/S 759 mmHg 42%
    16:00 +27°C° 0 mm 3 m/S 758 mmHg 44%
    17:00 +26°C° 0 mm 3 m/S 759 mmHg 51%
    18:00 +24°C° 0 mm 3 m/S 759 mmHg 58%
    19:00 +23°C° 0 mm 2 m/S 759 mmHg 65%
    20:00 +21°C° 0 mm 2 m/S 759 mmHg 67%
    21:00 +21°C° 0 mm 2 m/S 759 mmHg 69%
    22:00 +20°C° 0 mm 2 m/S 759 mmHg 72%
    23:00 +20°C° 0 mm 2 m/S 759 mmHg 71%
    Mehr zeigen